FW6148 Weather Reports


Display with metric or nautical units.
time (UTC)temp
F
wind
direction
speed
MPH
gust
MPH
rain 1hr
in
rain 24hr
in
rain mn
in
humidity
%
barometer
mb
20200329065528 31 0 0.0 0.0 0.00 0.00 0.00 70 1013.5
20200329065026 31 0 0.0 0.0 0.00 0.00 0.00 70 1013.5
20200329064551 31 0 0.0 0.0 0.00 0.00 0.00 70 1013.5
20200329064028 32 0 0.0 0.0 0.00 0.00 0.00 70 1013.4
20200329063526 32 0 0.0 0.0 0.00 0.00 0.00 70 1013.5
20200329063049 32 0 0.0 2.0 0.00 0.00 0.00 70 1013.5
20200329062526 33 0 0.0 4.0 0.00 0.00 0.00 70 1013.4
20200329062028 33 250 1.0 4.0 0.00 0.00 0.00 67 1013.6
20200329061529 33 249 1.0 4.0 0.00 0.00 0.00 68 1013.5
20200329061105 32 266 0.0 3.0 0.00 0.00 0.00 68 1013.6
20200329060528 32 0 0.0 2.0 0.00 0.00 0.00 70 1013.4
20200329060128 33 0 0.0 1.0 0.00 0.00 0.00 69 1013.4
20200329055525 33 0 0.0 3.0 0.00 0.00 0.00 68 1013.4
20200329055027 33 0 1.0 4.0 0.00 0.00 0.00 66 1013.3
20200329054543 33 250 2.0 4.0 0.00 0.00 0.00 65 1013.3
20200329054030 33 244 2.0 4.0 0.00 0.00 0.00 67 1013.3
20200329053534 33 254 1.0 4.0 0.00 0.00 0.00 68 1013.2
20200329053035 33 229 1.0 4.0 0.00 0.00 0.00 68 1013.3
20200329052529 33 228 1.0 3.0 0.00 0.00 0.00 68 1013.2
20200329052026 33 0 0.0 2.0 0.00 0.00 0.00 68 1013.3
20200329051535 33 237 0.0 3.0 0.00 0.00 0.00 66 1013.4
20200329051032 33 0 1.0 3.0 0.00 0.00 0.00 66 1013.4
20200329050528 33 240 0.0 3.0 0.00 0.00 0.00 68 1013.3
20200329050140 33 0 0.0 2.0 0.00 0.00 0.00 68 1013.3
20200329045532 33 0 0.0 0.0 0.00 0.00 0.00 67 1013.3
20200329045034 34 0 0.0 1.0 0.00 0.00 0.00 66 1013.4
20200329044547 34 0 0.0 1.0 0.00 0.00 0.00 65 1013.3
20200329044029 34 0 0.0 2.0 0.00 0.00 0.00 66 1013.4
20200329043535 34 0 0.0 3.0 0.00 0.00 0.00 62 1013.3
20200329043037 34 0 0.0 3.0 0.00 0.00 0.00 63 1013.2
20200329042525 34 266 0.0 3.0 0.00 0.00 0.00 63 1013.3
20200329042033 34 268 1.0 4.0 0.00 0.00 0.00 62 1013.1
20200329041527 34 268 2.0 4.0 0.00 0.00 0.00 62 1013.2
20200329041031 34 235 1.0 4.0 0.00 0.00 0.00 62 1013.2
20200329040532 34 275 1.0 4.0 0.00 0.00 0.00 62 1013.1
20200329040043 34 279 2.0 4.0 0.00 0.00 0.00 62 1013.2
20200329035526 33 223 2.0 5.0 0.00 0.00 0.00 62 1013.3
20200329035028 33 270 3.0 5.0 0.00 0.00 0.00 64 1013.1
20200329034535 34 277 2.0 3.0 0.00 0.00 0.00 62 1013.1
20200329034032 34 267 0.0 4.0 0.00 0.00 0.00 62 1013.1
20200329033526 34 267 2.0 4.0 0.00 0.00 0.00 61 1013.2
20200329033035 34 231 2.0 4.0 0.00 0.00 0.00 62 1013.2
20200329032528 34 221 0.0 0.0 0.00 0.00 0.00 62 1013.1
20200329032038 34 0 0.0 0.0 0.00 0.00 0.00 61 1013.1
20200329031610 35 0 0.0 0.0 0.00 0.00 0.00 60 1013.0
20200329031037 35 0 0.0 1.0 0.00 0.00 0.00 57 1013.0
20200329030528 36 0 0.0 4.0 0.00 0.00 0.00 57 1013.1
20200329030119 36 0 2.0 4.0 0.00 0.00 0.00 54 1013.0
20200329025536 37 150 0.0 0.0 0.00 0.00 0.00 53 1013.0
20200329025033 38 0 0.0 4.0 0.00 0.00 0.00 54 1012.9
20200329024600 38 0 0.0 4.0 0.00 0.00 0.00 52 1012.8
20200329024036 38 98 1.0 4.0 0.00 0.00 0.00 51 1012.8
20200329023526 39 86 2.0 4.0 0.00 0.00 0.00 49 1012.7
20200329023032 40 72 2.0 4.0 0.00 0.00 0.00 48 1012.7
20200329022535 41 0 0.0 3.0 0.00 0.00 0.00 47 1012.6
20200329022026 41 0 0.0 6.0 0.00 0.00 0.00 46 1012.6
20200329021543 42 0 1.0 7.0 0.00 0.00 0.00 46 1012.5
20200329021031 42 46 3.0 7.0 0.00 0.00 0.00 44 1012.4
20200329020527 42 39 4.0 9.0 0.00 0.00 0.00 44 1012.3
20200329020036 43 63 4.0 9.0 0.00 0.00 0.00 44 1012.4
20200329015530 43 59 4.0 9.0 0.00 0.00 0.00 43 1012.3
20200329015028 43 76 4.0 9.0 0.00 0.00 0.00 42 1012.3
20200329014557 44 53 4.0 10.0 0.00 0.00 0.00 42 1012.1
20200329014045 44 96 5.0 12.0 0.00 0.00 0.00 41 1012.1
20200329013525 44 58 6.0 12.0 0.00 0.00 0.00 40 1012.1
20200329013122 44 56 5.0 11.0 0.00 0.00 0.00 41 1012.1
20200329012529 44 60 6.0 11.0 0.00 0.00 0.00 41 1012.1
20200329012029 44 102 4.0 10.0 0.00 0.00 0.00 41 1012.1
20200329011554 44 61 5.0 10.0 0.00 0.00 0.00 41 1012.1
20200329011036 45 50 4.0 16.0 0.00 0.00 0.00 41 1012.0
20200329010525 45 74 7.0 16.0 0.00 0.00 0.00 40 1012.0
20200329010123 45 66 6.0 16.0 0.00 0.00 0.00 40 1012.0
20200329005528 45 63 6.0 16.0 0.00 0.00 0.00 40 1011.8
20200329005028 45 86 8.0 16.0 0.00 0.00 0.00 39 1011.9
20200329004552 45 84 5.0 13.0 0.00 0.00 0.00 41 1011.8
20200329004029 45 55 6.0 15.0 0.00 0.00 0.00 41 1011.7
20200329003529 45 79 9.0 15.0 0.00 0.00 0.00 40 1011.6
20200329003038 46 95 5.0 13.0 0.00 0.00 0.00 40 1011.7
20200329002534 46 94 7.0 14.0 0.00 0.00 0.00 39 1011.6
20200329002026 46 94 10.0 14.0 0.00 0.00 0.00 39 1011.6
20200329001545 46 95 7.0 17.0 0.00 0.00 0.00 38 1011.5
20200329001028 46 93 9.0 20.0 0.00 0.00 0.00 38 1011.4
20200329000526 46 76 12.0 20.0 0.00 0.00 0.00 37 1011.4
20200329000030 46 64 9.0 18.0 0.00 0.00 0.00 37 1011.2
20200328235540 46 87 8.0 16.0 0.00 0.00 0.00 36 1011.2
20200328235030 46 66 8.0 16.0 0.00 0.00 0.00 37 1011.2
20200328234608 46 67 6.0 18.0 0.00 0.00 0.00 39 1011.1
20200328234035 46 76 10.0 19.0 0.00 0.00 0.00 36 1011.0
20200328233527 47 62 9.0 19.0 0.00 0.00 0.00 36 1011.0
20200328233134 48 81 10.0 19.0 0.00 0.00 0.00 35 1011.0
20200328232531 47 78 10.0 16.0 0.00 0.00 0.00 38 1010.9
20200328232033 48 98 9.0 16.0 0.00 0.00 0.00 36 1010.9
20200328231611 48 92 10.0 16.0 0.00 0.00 0.00 34 1010.9
20200328231031 48 95 11.0 16.0 0.00 0.00 0.00 35 1010.9
20200328230529 49 74 8.0 18.0 0.00 0.00 0.00 36 1010.8
20200328230058 48 78 11.0 19.0 0.00 0.00 0.00 37 1010.8
20200328225528 47 97 10.0 20.0 0.00 0.00 0.00 36 1010.7
20200328225027 48 82 10.0 20.0 0.00 0.00 0.00 36 1010.7
20200328224537 48 98 10.0 18.0 0.00 0.00 0.00 37 1010.7
20200328224028 48 76 10.0 21.0 0.00 0.00 0.00 36 1010.9
20200328223525 48 88 12.0 21.0 0.00 0.00 0.00 35 1010.8
20200328223052 49 84 11.0 20.0 0.00 0.00 0.00 34 1010.7
20200328222528 49 51 8.0 17.0 0.00 0.00 0.00 37 1010.7
20200328222026 48 63 9.0 19.0 0.00 0.00 0.00 39 1010.7
20200328221601 48 81 13.0 27.0 0.00 0.00 0.00 35 1010.7
20200328221029 49 107 12.0 27.0 0.00 0.00 0.00 35 1010.8
20200328220537 50 88 13.0 20.0 0.00 0.00 0.00 35 1010.6
20200328220104 48 100 9.0 21.0 0.00 0.00 0.00 37 1010.6
20200328215537 48 73 9.0 21.0 0.00 0.00 0.00 36 1010.5
20200328215026 48 109 10.0 21.0 0.00 0.00 0.00 36 1010.5
20200328214622 48 56 8.0 25.0 0.00 0.00 0.00 36 1010.4
20200328214030 48 90 10.0 25.0 0.00 0.00 0.00 35 1010.5
20200328213526 48 64 12.0 18.0 0.00 0.00 0.00 35 1010.6
20200328213053 48 42 13.0 17.0 0.00 0.00 0.00 37 1010.6
20200328212532 48 64 10.0 17.0 0.00 0.00 0.00 36 1010.6
20200328212028 48 97 12.0 22.0 0.00 0.00 0.00 38 1010.6
20200328211559 49 51 11.0 22.0 0.00 0.00 0.00 37 1010.6
20200328211028 49 98 10.0 17.0 0.00 0.00 0.00 36 1010.4
20200328210528 48 76 9.0 17.0 0.00 0.00 0.00 34 1010.4
20200328210038 49 58 10.0 20.0 0.00 0.00 0.00 33 1010.6
20200328205528 49 61 8.0 20.0 0.00 0.00 0.00 36 1010.4
20200328205028 50 71 8.0 19.0 0.00 0.00 0.00 35 1010.4
20200328204530 49 59 12.0 19.0 0.00 0.00 0.00 34 1010.4
20200328204027 50 86 8.0 18.0 0.00 0.00 0.00 35 1010.4
20200328203525 49 89 10.0 18.0 0.00 0.00 0.00 34 1010.5
20200328203057 49 67 8.0 16.0 0.00 0.00 0.00 36 1010.6
20200328202530 50 74 10.0 17.0 0.00 0.00 0.00 34 1010.6
20200328202034 49 77 11.0 17.0 0.00 0.00 0.00 35 1010.6
20200328201609 48 44 9.0 18.0 0.00 0.00 0.00 36 1010.7
20200328201028 48 91 11.0 18.0 0.00 0.00 0.00 35 1010.8
20200328200525 48 73 10.0 18.0 0.00 0.00 0.00 36 1010.8
20200328200028 49 84 10.0 21.0 0.00 0.00 0.00 37 1010.8
20200328195525 49 69 13.0 21.0 0.00 0.00 0.00 37 1010.9
20200328195031 49 94 11.0 19.0 0.00 0.00 0.00 36 1010.8
20200328194546 49 81 9.0 20.0 0.00 0.00 0.00 38 1010.9
20200328194030 49 96 10.0 20.0 0.00 0.00 0.00 38 1011.0
20200328193545 49 95 11.0 20.0 0.00 0.00 0.00 37 1011.0
20200328193102 48 50 10.0 20.0 0.00 0.00 0.00 36 1011.1
20200328192527 49 64 11.0 21.0 0.00 0.00 0.00 36 1011.1
20200328192031 48 87 13.0 21.0 0.00 0.00 0.00 37 1011.0
20200328191609 48 63 11.0 24.0 0.00 0.00 0.00 40 1011.1
20200328191025 48 65 13.0 27.0 0.00 0.00 0.00 40 1011.0
20200328190532 48 84 13.0 27.0 0.00 0.00 0.00 37 1011.1
20200328190040 48 80 13.0 20.0 0.00 0.00 0.00 39 1011.0
20200328185533 47 63 10.0 20.0 0.00 0.00 0.00 38 1011.1
20200328185028 47 51 11.0 22.0 0.00 0.00 0.00 38 1011.3
20200328184530 47 53 11.0 22.0 0.00 0.00 0.00 40 1011.3
20200328184032 47 68 10.0 19.0 0.00 0.00 0.00 39 1011.1
20200328183528 46 91 12.0 19.0 0.00 0.00 0.00 39 1011.3
20200328183058 46 74 8.0 17.0 0.00 0.00 0.00 38 1011.5
20200328182526 46 58 10.0 16.0 0.00 0.00 0.00 39 1011.4
20200328182025 46 50 7.0 16.0 0.00 0.00 0.00 41 1011.4
20200328181549 46 26 8.0 20.0 0.00 0.00 0.00 41 1011.5
20200328181028 45 74 11.0 20.0 0.00 0.00 0.00 42 1011.5
20200328180527 45 69 10.0 17.0 0.00 0.00 0.00 38 1011.5
20200328180050 45 76 8.0 16.0 0.00 0.00 0.00 40 1011.5
20200328175527 45 92 9.0 19.0 0.00 0.00 0.00 40 1011.6
20200328175029 45 75 11.0 19.0 0.00 0.00 0.00 41 1011.6
20200328174625 45 83 10.0 18.0 0.00 0.00 0.00 41 1011.7
20200328174028 45 80 11.0 20.0 0.00 0.00 0.00 41 1011.8
20200328173525 45 81 12.0 21.0 0.00 0.00 0.00 41 1011.7
20200328173122 44 102 9.0 21.0 0.00 0.00 0.00 43 1011.9
20200328172526 45 98 14.0 21.0 0.00 0.00 0.00 41 1011.8
20200328172029 45 93 12.0 19.0 0.00 0.00 0.00 43 1011.9
20200328171530 44 82 12.0 19.0 0.00 0.00 0.00 43 1011.9
20200328171025 44 115 11.0 20.0 0.00 0.00 0.00 42 1012.1
20200328170533 45 72 11.0 20.0 0.00 0.00 0.00 42 1012.1
20200328170111 44 109 11.0 18.0 0.00 0.00 0.00 42 1012.1
20200328165602 44 107 10.0 17.0 0.00 0.00 0.00 40 1012.1
20200328165029 43 55 9.0 17.0 0.00 0.00 0.00 42 1012.0
20200328164607 43 103 9.0 16.0 0.00 0.00 0.00 41 1012.0
20200328164025 43 70 9.0 16.0 0.00 0.00 0.00 42 1012.0
20200328163526 43 91 9.0 16.0 0.00 0.00 0.00 40 1012.0
20200328162532 44 88 8.0 16.0 0.00 0.00 0.00 42 1011.8
20200328162024 44 91 9.0 15.0 0.00 0.00 0.00 43 1011.7
20200328161534 44 88 7.0 12.0 0.00 0.00 0.00 45 1011.8
20200328161026 43 108 4.0 11.0 0.00 0.00 0.00 46 1011.7
20200328160528 42 101 5.0 11.0 0.00 0.00 0.00 45 1011.7
20200328160052 42 86 4.0 10.0 0.00 0.00 0.00 44 1011.8
20200328155525 41 53 4.0 9.0 0.00 0.00 0.00 46 1011.8
20200328155033 41 90 4.0 9.0 0.00 0.00 0.00 44 1011.8
20200328154543 41 103 4.0 8.0 0.00 0.00 0.00 44 1011.9
20200328154034 41 98 3.0 8.0 0.00 0.00 0.00 49 1011.9
20200328153533 40 98 3.0 8.0 0.00 0.00 0.00 47 1011.8
20200328153030 40 98 4.0 7.0 0.00 0.00 0.00 48 1011.7
20200328152528 40 80 3.0 7.0 0.00 0.00 0.00 50 1011.7
20200328152026 40 80 4.0 7.0 0.00 0.00 0.00 49 1011.6
20200328151630 40 94 3.0 6.0 0.00 0.00 0.00 50 1011.6
20200328151036 39 57 3.0 5.0 0.00 0.00 0.00 55 1011.5
20200328150546 39 56 2.0 4.0 0.00 0.00 0.00 53 1011.5
20200328150030 38 0 0.0 3.0 0.00 0.00 0.00 53 1011.5
20200328145525 37 0 0.0 0.0 0.00 0.00 0.00 58 1011.4
20200328145050 36 0 0.0 0.0 0.00 0.00 0.00 61 1011.4
20200328144543 35 0 0.0 0.0 0.00 0.00 0.00 64 1011.3
20200328144025 34 0 0.0 0.0 0.00 0.00 0.00 66 1011.2
20200328143609 33 0 0.0 1.0 0.00 0.00 0.00 65 1011.1
20200328143135 32 0 0.0 2.0 0.00 0.00 0.00 70 1011.2
20200328142527 31 0 0.0 2.0 0.00 0.00 0.00 70 1011.2
20200328142026 30 259 0.0 2.0 0.00 0.00 0.00 71 1011.2
20200328141545 30 0 0.0 0.0 0.00 0.00 0.00 72 1011.1
20200328141036 29 0 0.0 0.0 0.00 0.00 0.00 73 1011.2
20200328140537 27 0 0.0 2.0 0.00 0.00 0.00 76 1011.1
20200328140051 26 0 0.0 3.0 0.00 0.00 0.00 76 1011.1
20200328135525 25 259 1.0 3.0 0.00 0.00 0.00 78 1011.0
20200328135030 24 259 1.0 3.0 0.00 0.00 0.00 78 1011.0
20200328134557 23 0 1.0 3.0 0.00 0.00 0.00 77 1011.0
20200328134028 23 259 0.0 4.0 0.00 0.00 0.00 77 1010.9
20200328133531 23 260 2.0 5.0 0.00 0.00 0.00 77 1010.9
20200328133046 22 248 2.0 5.0 0.00 0.00 0.00 78 1010.8
20200328132543 22 225 3.0 5.0 0.00 0.00 0.00 80 1010.7
20200328132026 20 238 1.0 4.0 0.00 0.00 0.00 81 1010.8
20200328131536 20 0 0.0 2.0 0.00 0.00 0.00 81 1010.6
20200328131028 20 0 0.0 2.0 0.00 0.00 0.00 81 1010.6
20200328130526 20 256 0.0 3.0 0.00 0.00 0.00 80 1010.6
20200328130044 21 0 1.0 3.0 0.00 0.00 0.00 80 1010.6
20200328125536 20 269 1.0 4.0 0.00 0.00 0.00 79 1010.6
20200328125025 21 246 2.0 4.0 0.00 0.00 0.00 78 1010.6
20200328124620 21 250 2.0 3.0 0.00 0.00 0.00 80 1010.5
20200328124030 21 262 2.0 4.0 0.00 0.00 0.00 81 1010.4
20200328123524 20 0 0.0 4.0 0.00 0.00 0.00 81 1010.3
20200328123113 20 269 1.0 3.0 0.00 0.00 0.00 80 1010.3
20200328122543 21 241 1.0 3.0 0.00 0.00 0.00 79 1010.3
20200328122106 21 0 0.0 4.0 0.00 0.00 0.00 79 1010.1
20200328121533 22 251 1.0 4.0 0.00 0.00 0.00 78 1010.0
20200328121027 22 234 2.0 4.0 0.00 0.00 0.00 78 1010.0
20200328120524 22 234 1.0 5.0 0.00 0.00 0.00 80 1009.9
20200328120104 21 234 3.0 5.0 0.00 0.00 0.00 82 1009.8
20200328115526 21 240 1.0 4.0 0.00 0.00 0.00 81 1009.8
20200328115027 20 244 2.0 4.0 0.00 0.00 0.00 82 1009.8
20200328114613 20 281 1.0 3.0 0.00 0.00 0.00 81 1009.7
20200328114034 21 0 1.0 3.0 0.00 0.00 0.00 81 1009.6
20200328113532 21 266 1.0 4.0 0.00 0.00 0.00 81 1009.6
20200328113048 20 266 1.0 4.0 0.00 0.00 0.00 84 1009.6
20200328112526 20 0 0.0 0.0 0.00 0.00 0.00 82 1009.5
20200328112033 20 0 0.0 0.0 0.00 0.00 0.00 81 1009.5
20200328111556 20 0 0.0 0.0 0.00 0.00 0.00 80 1009.5
20200328111027 21 0 0.0 0.0 0.00 0.00 0.00 81 1009.5
20200328110538 21 0 0.0 0.0 0.00 0.00 0.00 82 1009.5
20200328110059 20 0 0.0 0.0 0.00 0.00 0.00 82 1009.3
20200328105529 20 0 0.0 1.0 0.00 0.00 0.00 82 1009.4
20200328105024 20 0 0.0 3.0 0.00 0.00 0.00 81 1009.3
20200328104538 20 0 1.0 3.0 0.00 0.00 0.00 81 1009.2
20200328104033 21 250 0.0 2.0 0.00 0.00 0.00 81 1009.1
20200328103526 21 250 0.0 2.0 0.00 0.00 0.00 79 1009.1
20200328103037 22 250 1.0 3.0 0.00 0.00 0.00 81 1009.1
20200328102527 21 250 1.0 3.0 0.00 0.00 0.00 82 1009.0
20200328102024 20 250 1.0 3.0 0.00 0.00 0.00 83 1009.0
20200328101558 20 0 0.0 0.0 0.00 0.00 0.00 81 1009.0
20200328101027 21 0 0.0 0.0 0.00 0.00 0.00 81 1009.0
20200328100526 21 0 0.0 0.0 0.00 0.00 0.00 80 1009.0
20200328100029 22 0 0.0 0.0 0.00 0.00 0.00 80 1008.9
20200328095527 22 0 0.0 0.0 0.00 0.00 0.00 80 1009.0
20200328095027 21 0 0.0 0.0 0.00 0.00 0.00 81 1009.0
20200328094542 21 0 0.0 0.0 0.00 0.00 0.00 80 1008.9
20200328094032 21 0 0.0 0.0 0.00 0.00 0.00 81 1008.9
20200328093543 21 0 0.0 0.0 0.00 0.00 0.00 81 1008.7
20200328092528 22 0 0.0 2.0 0.00 0.00 0.00 79 1008.7
20200328092037 22 0 0.0 3.0 0.00 0.00 0.00 80 1008.7
20200328091552 22 250 1.0 3.0 0.00 0.00 0.00 82 1008.7
20200328091036 22 269 1.0 3.0 0.00 0.00 0.00 81 1008.6
20200328090532 22 269 0.0 2.0 0.00 0.00 0.00 80 1008.7
20200328090030 22 0 0.0 0.0 0.00 0.00 0.00 80 1008.6
20200328085532 23 0 0.0 0.0 0.00 0.00 0.00 81 1008.6
20200328085025 23 0 0.0 0.0 0.00 0.00 0.00 80 1008.8
20200328084601 24 0 0.0 3.0 0.00 0.00 0.00 79 1008.7
20200328084027 24 0 0.0 4.0 0.00 0.00 0.00 79 1008.7
20200328083533 24 269 2.0 4.0 0.00 0.00 0.00 78 1008.7
20200328083030 24 270 2.0 3.0 0.00 0.00 0.00 78 1008.7
20200328082532 24 244 0.0 2.0 0.00 0.00 0.00 78 1008.6
20200328082024 24 244 1.0 2.0 0.00 0.00 0.00 77 1008.8
20200328081646 24 242 1.0 3.0 0.00 0.00 0.00 77 1008.7
20200328081029 25 242 1.0 3.0 0.00 0.00 0.00 77 1008.7
20200328080530 25 229 1.0 3.0 0.00 0.00 0.00 78 1008.7
20200328080115 24 213 0.0 2.0 0.00 0.00 0.00 79 1008.7
20200328075525 25 213 0.0 2.0 0.00 0.00 0.00 78 1008.8
20200328075025 25 0 0.0 1.0 0.00 0.00 0.00 78 1008.7
20200328074601 26 0 0.0 2.0 0.00 0.00 0.00 77 1008.7
20200328074035 26 213 0.0 3.0 0.00 0.00 0.00 76 1008.6
20200328073534 26 213 1.0 3.0 0.00 0.00 0.00 76 1008.6
20200328073055 27 107 0.0 2.0 0.00 0.00 0.00 74 1008.5
20200328072540 28 0 0.0 2.0 0.00 0.00 0.00 72 1008.6
20200328072026 29 0 0.0 2.0 0.00 0.00 0.00 72 1008.6
20200328071723 30 107 0.0 2.0 0.00 0.00 0.00 70 1008.5
20200328071028 31 0 0.0 0.0 0.00 0.00 0.00 70 1008.6
20200328070540 32 0 0.0 2.0 0.00 0.00 0.00 68 1008.5
20200328070100 32 0 0.0 3.0 0.00 0.00 0.00 66 1008.4